EHI
0 0 0 0 0 0 0 0 0 0 0 0 0 0 0 0 0 0 0 0 0 0 0 0 0 0 0 0 0 0 0 0 0 0 0 0 0 0 0 0 0 0 0
0 0 0 0 0 0 0 0 0 0 0 0 0 0 0 0 0 0 0 0 0 0 0 0 0 0 0 0 0 0 0 0 0 0 0 0 0 0 0 0 0 0 0
0 0 0 0 0 0 0 0 0 0 0 0 0 0 0 0 0 0 0 0 0 0 0 0 0 0 0 0 0 0 0 0 0 0 0 0 0 0 0 0 0 0 0
0 0 0 0 0 0 0 0 0 0 0 0 0 0 0 0 0 0 0 0 0 0 0 0 0 0 0 0 0 0 0 0 0 0 0 0 0 0 0 0 0 0 0
0 0 0 0 0 0 0 0 0 0 0 0 0 0 0 0 0 0 0 0 0 0 0 0 0 0 0 0 0 0 0 0 0 0 0 0 0 0 0 0 0 0 0
0 0 0 0 0 0 0 0 0 0 0 0 0 0 0 0 0 0 0 0 0 0 0 0 0 0 0 0 0 0 0 0 0 0 0 0 0 0 0 0 0 0 0
0 0 0 0 0 0 0 0 0 0 0 0 0 0 0 0 0 0 0 0 0 0 0 0 0 0 0 0 0 0 0 0 0 0 0 0 0 0 0 0 0 0 0
0 0 0 0 0 0 0 0 0 0 0 0 0 0 0 0 0 0 0 0 0 0 0 0 0 0 0 0 0 0 0 0 0 0 0 0 0 0 0 0 0 0 0
0 0 0 0 0 0 0 0 0 0 0 0 0 0 0 0 0 0 0 0 0 0 0 0 0 0 0 0 0 0 0 0 0 0 0 0 0 0 0 0 0 0 0
0 0 0 0 0 0 0 0 0 0 0 0 0 0 0 0 0 0 0 0 0 0 0 0 0 0 0 0 0 0 0 0 0 0 0 0 0 0 0 0 0 0 0
0 0 0 0 0 0 0 0 0 0 0 0 0 0 0 0 0 0 0 0 0 0 0 0 0 0 0 0 0 0 0 0 0 0 0 0 0 0 0 0 0 0 0
0 0 0 0 0 0 0 0 0 0 0 0 0 0 0 0 0 0 0 0 0 0 0 0 0 0 0 0 0 0 0 0 0 0 0 0 0 0 0 0 0 0 0
0 0 0 0 0 0 0 0 0 0 0 0 0 0 0 0 0 0 0 0 0 0 0 0 0 0 0 0 0 0 0 0 0 0 0 0 0 0 0 0 0 0 0
0 0 0 0 0 0 0 0 0 0 0 0 0 0 0 0 0 0 0 0 0 0 0 0 0 0 0 0 0 0 0 0 0 0 0 0 0 0 0 0 0 0 0
0 0 0 0 0 0 0 0 0 0 0 0 0 0 0 0 0 0 0 0 0 0 0 0 0 0 0 0 0 0 0 0 0 0 0 0 0 0 0 0 0 0 0
0 0 0 0 0 0 0 0 0 0 0 0 0 0 0 0 0 0 0 0 0 0 0 0 0 0 0 0 0 0 0 0 0 0 0 0 0 0 0 0 0 0 0
0 0 0 0 0 0 0 0 0 0 0 0 0 0 0 0 0 0 0 0 0 0 0 0 0 0 0 0 0 0 0 0 0 0 0 0 0 0 0 0 0 0 0
0 0 0 0 0 0 0 0 0 0 0 0 0 0 0 0 0 0 0 0 0 0 0 0 0 0 0 0 0 0 0 0 0 0 0 0 0 0 0 0 0 0 0
0 0 0 0 0 0 0 0 0 0 0 0 0 0 0 0 0 0 0 0 0 0 0 0 0 0 0 0 0 0 0 0 0 0 0 0 0 0 0 0 0 0 0
0 0 0 0 0 0 0 0 0 0 0 0 0 0 0 0 0 0 0 0 0 0 0 0 0 0 0 0 0 0 0 0 0 0 0 0 0 0 0 0 0 0 0
0 0 0 0 0 0 0 0 0 0 0 0 0 0 0 0 0 0 0 0 0 0 0 0 0 0 0 0 0 0 0 0 0 0 0 0 0 0 0 0 0 0 0
0 0 0 0 0 0 0 0 0 0 0 0 0 0 0 0 0 0 0 0 0 0 0 0 0 0 0 0 0 0 0 0 0 0 0 0 0 0 0 0 0 0 0
0 0 0 0 0 0 0 0 0 0 0 0 0 0 0 0 0 0 0 0 0 0 0 0 0 0 0 0 0 0 0 0 0 0 0 0 0 0 0 0 0 0 0
0 0 0 0 0 0 0 0 0 0 0 0 0 0 0 0 0 0 0 0 0 0 0 0 0 0 0 0 0 0 0 0 0 0 0 0 0 0 0 0 0 0 0
0 0 0 0 0 0 0 0 0 0 0 0 0 0 0 0 0 0 0 0 0 0 0 0 0 0 0 0 0 0 0 0 0 0 0 0 0 0 0 0 0 0 0
0 0 0 0 0 0 0 0 0 0 0 0 0 0 0 0 0 0 0 0 0 0 0 0 0 0 0 0 0 0 0 0 0 0 0 0 0 0 0 0 0 0 0
Wind_Speed
10 10 11 12 13 15 15 15 15 14 12 11 11 10 9 9 8 7 11 12 13 13 11 9 10 10 9 10 10 8 8 5 4 3 4 4 5 5 5 5 5 6 7
13 13 13 13 14 15 15 15 15 15 13 11 10 8 8 8 9 9 11 12 14 13 11 11 10 11 10 11 10 8 6 5 4 5 3 3 4 4 5 4 5 6 5
10 10 10 11 12 14 15 15 15 15 14 13 10 10 8 8 9 11 11 13 15 14 12 12 11 11 10 9 11 10 9 7 5 5 5 4 6 3 3 3 3 4 5
8 8 10 12 13 13 14 15 16 15 14 13 12 14 12 11 12 11 11 14 14 13 12 12 12 11 10 10 11 10 8 8 7 5 5 4 4 4 3 2 2 3 4
8 8 9 10 12 13 14 14 15 15 15 15 15 14 12 11 11 12 13 12 11 11 12 13 12 12 11 12 11 11 9 6 7 5 4 3 2 3 4 3 3 2 2
8 7 8 9 11 12 13 14 16 16 16 16 16 16 16 16 16 17 15 13 11 11 13 14 13 13 12 12 12 10 11 8 7 6 4 3 3 4 5 5 4 3 2
7 8 10 11 13 14 14 15 16 16 16 16 16 16 16 16 16 16 15 15 12 12 14 15 14 13 13 13 11 10 10 8 7 6 5 5 5 3 4 5 4 3 2
7 8 9 9 11 13 14 15 16 16 16 16 16 15 15 12 12 15 14 14 12 12 15 16 15 15 15 14 12 10 9 7 7 7 6 4 4 3 3 4 5 3 1
7 7 8 8 10 11 13 15 16 16 16 16 16 14 14 14 14 15 14 12 12 13 15 16 16 16 16 15 13 9 10 8 7 6 5 4 4 3 3 2 4 6 5
7 7 7 8 9 10 11 12 14 15 15 15 14 14 14 14 14 13 14 15 15 15 15 15 16 17 16 16 14 11 9 9 7 5 6 5 4 3 2 2 1 3 4
7 7 7 7 8 9 10 11 13 15 15 15 14 14 13 13 13 13 14 14 14 14 15 15 16 16 16 16 15 14 13 11 9 7 5 5 4 3 2 1 1 2 3
6 6 7 7 9 10 11 12 12 13 14 14 14 14 13 14 13 14 14 14 15 14 14 14 14 15 16 16 15 15 14 13 11 9 6 5 3 3 2 1 0 1 2
7 6 6 8 10 10 11 11 11 13 13 13 13 13 13 14 14 14 14 14 14 14 14 13 14 14 15 15 14 14 14 13 12 11 8 6 4 2 1 0 0 1 1
7 7 7 8 9 9 10 11 11 11 13 13 13 13 13 14 13 13 13 14 14 14 14 14 13 13 14 13 13 11 12 12 12 12 11 10 7 4 1 0 1 1 2
9 9 9 8 9 9 10 10 11 11 13 13 13 13 13 13 13 13 13 14 14 15 14 14 14 13 11 12 14 8 9 10 10 11 11 12 15 15 7 3 2 2 1
10 10 10 10 10 10 10 11 11 12 12 12 12 13 13 14 13 13 13 13 13 13 13 13 13 13 12 21 21 10 6 7 8 9 10 10 13 16 17 16 14 10 5
10 10 10 9 9 9 9 10 11 11 11 12 12 13 13 13 14 14 14 13 13 12 13 12 12 13 16 25 22 15 7 5 6 7 7 7 9 11 9 13 16 16 18
8 8 8 9 8 7 9 9 9 10 11 11 11 12 12 13 13 12 13 12 11 11 9 11 12 12 16 25 24 17 8 6 6 6 6 7 7 8 8 8 9 10 10
5 5 6 6 7 8 9 9 10 9 10 11 12 12 12 12 12 12 12 11 11 10 10 10 11 11 14 23 24 17 5 5 6 6 6 6 6 12 12 8 7 8 9
5 5 6 6 7 8 8 9 10 10 11 12 13 12 12 12 11 10 10 10 11 11 12 11 10 10 11 20 22 17 5 5 5 5 7 10 9 11 12 6 6 7 7
5 6 6 6 7 8 8 9 10 10 11 12 12 12 12 11 9 8 9 10 11 11 11 10 10 9 13 18 22 19 6 4 4 4 5 6 11 11 12 10 6 9 8
7 7 7 8 8 8 8 10 11 11 12 12 12 12 11 10 10 9 9 9 9 9 9 8 9 8 10 16 18 19 14 8 4 4 3 4 9 11 13 11 13 14 11
7 6 7 9 9 8 8 10 12 12 12 12 13 12 13 10 9 8 9 8 7 7 8 7 7 8 9 12 20 18 17 14 5 4 5 4 11 12 11 15 16 12 7
7 7 8 10 11 10 10 10 12 12 13 14 13 12 11 11 8 8 8 7 7 7 8 7 7 7 8 8 8 6 7 10 7 4 7 10 13 11 12 12 10 7 7
7 8 8 10 12 12 12 13 12 12 13 14 13 13 12 11 9 9 7 10 7 10 10 6 5 6 6 11 15 10 7 6 5 4 4 4 5 6 6 6 6 6 6
7 9 10 12 12 13 13 13 12 12 13 14 14 12 11 10 10 10 10 14 15 18 18 16 13 9 12 15 14 15 15 15 14 8 6 6 6 5 5 5 5 5 5
Wind_Direction
356 3 8 5 4 3 360 356 354 352 352 350 346 340 340 339 336 337 339 338 338 336 333 335 332 329 320 309 301 291 280 261 236 239 261 263 245 240 240 238 239 237 232
359 1 2 2 0 357 355 353 352 349 351 348 340 334 332 332 334 335 334 336 336 333 333 335 333 330 324 317 310 297 281 268 220 207 223 267 294 264 241 238 237 238 231
349 348 354 355 355 355 353 349 346 346 348 347 345 341 337 338 341 338 335 335 332 330 328 331 332 329 327 323 317 305 285 275 259 219 197 200 227 263 278 248 249 248 236
343 347 354 354 355 351 348 346 345 345 348 349 349 346 348 343 338 333 328 326 326 325 329 332 332 329 326 325 322 318 298 278 269 252 232 218 183 189 258 279 265 264 247
341 346 351 350 351 350 348 345 344 347 350 351 349 347 347 342 335 334 330 328 325 326 332 332 332 330 326 324 321 321 312 291 273 260 242 229 219 192 192 242 269 281 271
338 341 347 352 352 351 349 348 346 348 351 351 350 348 347 343 339 339 335 334 331 332 334 335 333 328 325 323 321 321 315 309 291 273 251 225 200 192 184 201 221 241 271
337 344 351 355 353 351 351 348 347 348 350 350 348 344 346 343 340 337 333 332 331 332 334 336 331 328 324 320 320 320 318 313 307 291 272 258 248 213 184 179 185 206 253
338 343 349 355 351 351 351 351 348 346 348 349 345 343 347 344 337 333 330 329 328 327 331 332 330 328 326 323 320 316 315 318 314 301 290 274 263 248 213 180 161 167 209
334 337 346 356 352 352 353 348 346 346 347 344 341 341 345 341 337 332 330 329 328 328 332 334 335 333 330 328 324 314 312 313 307 303 301 290 275 262 249 213 172 162 175
332 337 350 356 354 354 350 347 345 345 342 342 341 342 339 337 335 333 333 331 330 332 333 338 338 337 335 336 332 324 315 311 309 307 310 306 295 281 268 239 189 151 157
333 341 350 354 351 352 350 346 345 343 341 340 338 336 335 335 335 335 334 331 331 335 336 338 338 339 338 338 336 335 332 323 313 307 304 296 297 298 286 265 180 133 133
329 340 348 352 351 351 349 345 343 341 339 337 336 334 334 335 336 335 334 334 334 334 336 337 339 340 339 339 342 343 344 340 332 324 310 296 289 287 290 279 148 128 131
333 341 348 354 350 347 343 339 339 338 337 337 335 334 335 336 335 334 334 335 335 334 336 336 337 339 337 336 344 348 349 349 347 344 338 329 313 274 280 309 86 102 110
340 344 349 349 343 340 337 335 335 336 337 337 334 334 334 333 332 332 334 336 336 336 337 335 333 333 332 331 337 351 355 354 352 354 357 0 357 343 314 67 69 98 115
344 347 347 343 338 337 335 335 334 335 335 334 334 333 331 331 332 334 336 337 337 338 335 335 334 332 328 328 334 349 358 357 356 359 2 7 13 15 22 47 60 74 95
342 346 344 341 337 335 335 334 331 331 332 330 329 331 334 335 336 335 338 338 336 335 336 336 336 334 333 331 345 5 5 359 359 0 3 9 15 16 22 36 48 53 59
345 344 340 335 329 327 329 328 324 324 327 327 328 331 333 335 336 337 339 337 334 333 333 333 336 335 331 340 354 12 13 4 3 3 8 13 13 24 20 29 38 40 44
342 335 329 326 320 318 324 322 319 321 324 325 327 330 333 333 333 336 337 334 331 330 327 327 332 334 335 342 351 6 9 6 8 5 7 9 11 33 40 38 39 37 37
332 320 317 313 314 319 322 323 322 322 326 329 331 330 330 331 332 337 334 332 330 328 329 330 331 334 335 341 348 6 353 2 7 7 7 8 13 42 52 46 44 39 30
330 322 320 317 318 316 321 324 322 323 326 328 328 326 326 327 325 330 330 329 329 332 335 334 334 332 330 341 348 4 2 4 5 10 5 11 31 48 61 55 54 54 43
328 324 320 317 313 314 322 321 319 317 318 321 322 323 323 318 317 323 324 326 331 332 332 334 335 334 339 344 345 356 10 7 6 13 5 358 26 46 60 65 66 83 78
330 326 324 320 316 315 318 316 315 312 314 315 317 317 315 314 323 318 316 320 325 328 327 329 335 337 336 342 341 354 5 18 10 359 345 354 41 58 69 66 67 74 72
326 325 321 318 317 314 313 312 312 313 314 314 312 311 310 307 307 307 308 311 316 321 324 328 334 333 334 335 341 351 358 3 8 349 351 62 75 65 59 65 66 62 59
328 327 326 324 319 316 316 309 309 313 314 312 311 309 309 306 301 303 305 309 308 309 313 322 327 324 324 325 328 334 346 356 360 6 31 62 79 73 66 61 56 55 65
326 327 324 318 315 318 316 315 316 314 313 311 310 311 311 306 302 300 296 301 292 298 310 312 308 317 314 324 344 5 6 4 21 41 54 64 70 73 70 64 61 58 57
322 322 321 320 318 318 315 315 315 315 314 315 316 315 313 311 311 306 303 301 305 312 318 320 319 321 327 338 359 13 18 23 37 47 44 51 56 61 63 67 66 63 63